QFA12 KLAX-YSSY

Flight info

Callsign QFA12
Flight time N/A
Altitude 32000
Route SUMMR2 DINTY DCT DUETS R576 DENNS DCT CARRP DCT BARKR B580 VESUN DCT SATNU DCT SOTKI G595 ATNAT DCT RIKNI N774 MARLN
Aircraft A388/J-SADE2E3FGHIJ3J4J5M1RWXY/LB1D1

Departure

Time 2026-05-05 03:42
Airport Los Angeles International Airport (KLAX)

Arrival

Time N/A
Airport Sydney Kingsford Smith International Airport (YSSY)
Time Latitude Longitude Altitude Speed Heading
2026-05-05 02:51 33.94020 -118.41080 100 ft 0 kts 83°
2026-05-05 03:23 33.94020 -118.41083 100 ft 2 kts 83°
2026-05-05 03:23 33.94017 -118.41114 99 ft 4 kts 85°
2026-05-05 03:24 33.94013 -118.41146 98 ft 4 kts 78°
2026-05-05 03:24 33.94008 -118.41169 100 ft 4 kts 68°
2026-05-05 03:24 33.94000 -118.41183 98 ft 4 kts 22°
2026-05-05 03:24 33.93985 -118.41182 99 ft 4 kts 346°
2026-05-05 03:25 33.93960 -118.41175 99 ft 2 kts 353°
2026-05-05 03:25 33.93959 -118.41175 99 ft 3 kts 353°
2026-05-05 03:32 33.93962 -118.41175 99 ft 2 kts 353°
2026-05-05 03:32 33.93984 -118.41178 98 ft 5 kts 355°
2026-05-05 03:32 33.94026 -118.41181 99 ft 7 kts 357°
2026-05-05 03:33 33.94081 -118.41188 101 ft 9 kts 351°
2026-05-05 03:33 33.94157 -118.41202 100 ft 14 kts 351°
2026-05-05 03:33 33.94279 -118.41225 101 ft 21 kts 351°
2026-05-05 03:33 33.94432 -118.41247 101 ft 22 kts 351°
2026-05-05 03:34 33.94580 -118.41274 101 ft 21 kts 352°
2026-05-05 03:34 33.94703 -118.41277 102 ft 16 kts 358°
2026-05-05 03:34 33.94778 -118.41251 105 ft 9 kts 57°
2026-05-05 03:34 33.94799 -118.41182 107 ft 9 kts 77°
2026-05-05 03:35 33.94814 -118.41082 106 ft 14 kts 84°
2026-05-05 03:35 33.94827 -118.40940 107 ft 19 kts 84°
2026-05-05 03:35 33.94844 -118.40762 105 ft 24 kts 83°
2026-05-05 03:35 33.94869 -118.40549 105 ft 28 kts 82°
2026-05-05 03:36 33.94898 -118.40307 106 ft 31 kts 82°
2026-05-05 03:36 33.94924 -118.40036 104 ft 34 kts 84°
2026-05-05 03:36 33.94944 -118.39952 107 ft 0 kts 42°
2026-05-05 03:38 33.94945 -118.39951 106 ft 0 kts 42°
2026-05-05 03:40 33.94947 -118.39948 105 ft 3 kts 32°
2026-05-05 03:40 33.95005 -118.39936 111 ft 13 kts 336°
2026-05-05 03:40 33.95037 -118.40005 111 ft 10 kts 246°
2026-05-05 03:41 33.95030 -118.40091 114 ft 17 kts 267°
2026-05-05 03:41 33.94990 -118.40481 111 ft 81 kts 261°
2026-05-05 03:41 33.94893 -118.41392 112 ft 135 kts 263°
2026-05-05 03:41 33.94769 -118.42666 127 ft 166 kts 264°
2026-05-05 03:42 33.94631 -118.44057 534 ft 166 kts 261°
2026-05-05 03:42 33.94499 -118.45457 949 ft 169 kts 262°
2026-05-05 03:42 33.94362 -118.46876 1426 ft 168 kts 268°
2026-05-05 03:42 33.94328 -118.48286 1834 ft 172 kts 268°
2026-05-05 03:43 33.94280 -118.49767 1928 ft 183 kts 268°
2026-05-05 03:43 33.94202 -118.51332 2003 ft 190 kts 264°
2026-05-05 03:43 33.94065 -118.52961 2045 ft 201 kts 264°
2026-05-05 03:43 33.93927 -118.54676 2123 ft 210 kts 265°
2026-05-05 03:44 33.93784 -118.56503 2219 ft 229 kts 265°
2026-05-05 03:44 33.93629 -118.58482 2427 ft 244 kts 265°
2026-05-05 03:44 33.93468 -118.60548 2827 ft 250 kts 264°
2026-05-05 03:44 33.93304 -118.62639 3381 ft 252 kts 264°
2026-05-05 03:45 33.93137 -118.64758 3920 ft 255 kts 264°
2026-05-05 03:45 33.92971 -118.66892 4506 ft 257 kts 264°
2026-05-05 03:45 33.92803 -118.69063 5013 ft 262 kts 264°
2026-05-05 03:45 33.92635 -118.71240 5622 ft 262 kts 264°
2026-05-05 03:46 33.92465 -118.73430 6223 ft 263 kts 264°
2026-05-05 03:46 33.92296 -118.75598 6786 ft 265 kts 264°
2026-05-05 03:46 33.92120 -118.77849 7315 ft 267 kts 264°
2026-05-05 03:46 33.91946 -118.80080 7865 ft 269 kts 264°
2026-05-05 03:47 33.91768 -118.82332 8407 ft 271 kts 264°
2026-05-05 03:47 33.91711 -118.84576 8927 ft 274 kts 272°
2026-05-05 03:47 33.91802 -118.86880 9475 ft 276 kts 271°
2026-05-05 03:47 33.91878 -118.89199 10024 ft 278 kts 271°
2026-05-05 03:48 33.91948 -118.91564 10278 ft 290 kts 271°
2026-05-05 03:48 33.92019 -118.94047 10422 ft 304 kts 271°
2026-05-05 03:48 33.92093 -118.96650 10552 ft 318 kts 271°
2026-05-05 03:48 33.92191 -118.99314 10773 ft 328 kts 275°
2026-05-05 03:49 33.92690 -119.02011 11243 ft 331 kts 288°
2026-05-05 03:49 33.93685 -119.04537 11708 ft 335 kts 300°
2026-05-05 03:49 33.94953 -119.06903 12146 ft 337 kts 300°
2026-05-05 03:49 33.96203 -119.09299 12641 ft 339 kts 300°
2026-05-05 03:50 33.97439 -119.11700 13109 ft 341 kts 299°
2026-05-05 03:50 33.98703 -119.14163 13574 ft 343 kts 299°
2026-05-05 03:50 33.99987 -119.16600 14000 ft 346 kts 303°
2026-05-05 03:50 34.01549 -119.18828 14403 ft 351 kts 312°
2026-05-05 03:51 34.03423 -119.20756 14786 ft 357 kts 321°
2026-05-05 03:51 34.05475 -119.22467 15183 ft 360 kts 322°
2026-05-05 03:51 34.07527 -119.24217 15568 ft 362 kts 321°
2026-05-05 03:51 34.09582 -119.25990 15939 ft 365 kts 321°
2026-05-05 03:52 34.11653 -119.27780 16315 ft 367 kts 321°
2026-05-05 03:52 34.13734 -119.29577 16680 ft 370 kts 321°
2026-05-05 03:52 34.15833 -119.31387 17056 ft 372 kts 321°
2026-05-05 03:52 34.17925 -119.33191 17430 ft 374 kts 321°
2026-05-05 03:53 34.20051 -119.35024 17801 ft 377 kts 321°
2026-05-05 03:53 34.22192 -119.36872 18160 ft 379 kts 321°
2026-05-05 03:53 34.24340 -119.38726 18501 ft 381 kts 321°
2026-05-05 03:53 34.26533 -119.40620 18839 ft 382 kts 321°
2026-05-05 03:54 34.28675 -119.42472 19164 ft 384 kts 320°
2026-05-05 03:54 34.30845 -119.44348 19491 ft 385 kts 320°
2026-05-05 03:54 34.33035 -119.46245 19798 ft 387 kts 320°
2026-05-05 03:54 34.35228 -119.48144 20113 ft 389 kts 320°
2026-05-05 03:55 34.37418 -119.50073 20413 ft 389 kts 316°
2026-05-05 03:55 34.39222 -119.52463 20710 ft 382 kts 298°
2026-05-05 03:55 34.40341 -119.55334 21002 ft 377 kts 282°
2026-05-05 03:55 34.40736 -119.58445 21312 ft 373 kts 267°
2026-05-05 03:56 34.40537 -119.61575 21619 ft 372 kts 262°
2026-05-05 03:56 34.40304 -119.64697 21927 ft 374 kts 263°
2026-05-05 03:56 34.40087 -119.67845 22244 ft 375 kts 263°
2026-05-05 03:56 34.39872 -119.70998 22556 ft 376 kts 263°
2026-05-05 03:57 34.39653 -119.74168 22853 ft 378 kts 263°
2026-05-05 03:57 34.39432 -119.77341 23160 ft 379 kts 263°
2026-05-05 03:57 34.39207 -119.80528 23449 ft 381 kts 263°
2026-05-05 03:57 34.38980 -119.83727 23732 ft 382 kts 263°
2026-05-05 03:58 34.38752 -119.86925 23978 ft 383 kts 263°
2026-05-05 03:58 34.38522 -119.90145 24239 ft 384 kts 263°
2026-05-05 03:58 34.38290 -119.93371 24488 ft 385 kts 263°
2026-05-05 03:58 34.38056 -119.96606 24729 ft 387 kts 263°
2026-05-05 03:59 34.37821 -119.99857 24981 ft 388 kts 263°
2026-05-05 03:59 34.37584 -120.03119 25241 ft 389 kts 263°
2026-05-05 03:59 34.37346 -120.06387 25487 ft 391 kts 263°
2026-05-05 03:59 34.37109 -120.09627 25751 ft 392 kts 262°
2026-05-05 04:00 34.36867 -120.12926 26032 ft 394 kts 262°
2026-05-05 04:00 34.36624 -120.16224 26301 ft 395 kts 262°
2026-05-05 04:00 34.36377 -120.19551 26582 ft 397 kts 262°
2026-05-05 04:00 34.36129 -120.22889 26868 ft 399 kts 262°
2026-05-05 04:01 34.35879 -120.26250 27145 ft 401 kts 262°
2026-05-05 04:01 34.35627 -120.29615 27427 ft 403 kts 262°
2026-05-05 04:01 34.35373 -120.33000 27713 ft 405 kts 262°
2026-05-05 04:01 34.35117 -120.36398 28007 ft 407 kts 262°
2026-05-05 04:02 34.34859 -120.39810 28293 ft 408 kts 262°
2026-05-05 04:02 34.34543 -120.43228 28573 ft 409 kts 258°
2026-05-05 04:02 34.33928 -120.46603 28864 ft 410 kts 252°
2026-05-05 04:02 34.33014 -120.49864 29163 ft 410 kts 246°
2026-05-05 04:03 34.31824 -120.53006 29433 ft 412 kts 243°
2026-05-05 04:03 34.30567 -120.56138 29723 ft 414 kts 243°
2026-05-05 04:03 34.29324 -120.59289 30008 ft 416 kts 244°
2026-05-05 04:03 34.28078 -120.62455 30264 ft 418 kts 244°
2026-05-05 04:04 34.26822 -120.65642 30482 ft 421 kts 244°
2026-05-05 04:04 34.25559 -120.68837 30699 ft 423 kts 244°
2026-05-05 04:04 34.24281 -120.72062 30902 ft 426 kts 244°
2026-05-05 04:04 34.22999 -120.75294 31143 ft 428 kts 244°
2026-05-05 04:05 34.21705 -120.78551 31369 ft 430 kts 244°
2026-05-05 04:05 34.20407 -120.81814 31575 ft 432 kts 244°
2026-05-05 04:05 34.19103 -120.85089 31819 ft 434 kts 244°
2026-05-05 04:05 34.17792 -120.88382 32017 ft 436 kts 244°
2026-05-05 04:06 34.15118 -120.95081 32039 ft 450 kts 244°
2026-05-05 04:06 34.12351 -121.02001 32049 ft 463 kts 244°
2026-05-05 04:07 34.09568 -121.08948 32039 ft 463 kts 244°
2026-05-05 04:07 34.06765 -121.15929 32052 ft 462 kts 244°
2026-05-05 04:08 34.03959 -121.22905 32048 ft 462 kts 244°
2026-05-05 04:08 34.01152 -121.29866 32057 ft 461 kts 244°
2026-05-05 04:09 33.98335 -121.36839 32047 ft 462 kts 244°
2026-05-05 04:09 33.95999 -121.42610 32057 ft 462 kts 244°
2026-05-05 04:10 33.93176 -121.49572 32056 ft 462 kts 244°
2026-05-05 04:10 33.90353 -121.56519 32059 ft 461 kts 244°
2026-05-05 04:11 33.87531 -121.63450 32060 ft 462 kts 244°
2026-05-05 04:11 33.84707 -121.70371 32062 ft 460 kts 244°
2026-05-05 04:12 33.81874 -121.77300 32063 ft 461 kts 244°
2026-05-05 04:12 33.79064 -121.84159 32062 ft 459 kts 244°
2026-05-05 04:13 33.76236 -121.91050 32058 ft 460 kts 244°
2026-05-05 04:13 33.73404 -121.97935 32071 ft 459 kts 244°
2026-05-05 04:14 33.70572 -122.04806 32058 ft 459 kts 244°
2026-05-05 04:14 33.67734 -122.11679 32064 ft 458 kts 244°
2026-05-05 04:15 33.64896 -122.18536 32069 ft 458 kts 244°
2026-05-05 04:15 33.62061 -122.25374 32074 ft 458 kts 244°
2026-05-05 04:16 33.59218 -122.32218 32072 ft 458 kts 244°
2026-05-05 04:16 33.56378 -122.39038 32071 ft 457 kts 244°
2026-05-05 04:17 33.53535 -122.45857 32076 ft 458 kts 244°
2026-05-05 04:17 33.50688 -122.52670 32076 ft 456 kts 244°
2026-05-05 04:18 33.48117 -122.59606 32076 ft 457 kts 251°
2026-05-05 04:18 33.46530 -122.66964 32075 ft 456 kts 256°
2026-05-05 04:19 33.45015 -122.74348 32075 ft 456 kts 255°
2026-05-05 04:19 33.43500 -122.81666 32077 ft 455 kts 255°
2026-05-05 04:20 33.41970 -122.89040 32079 ft 456 kts 255°
2026-05-05 04:20 33.40440 -122.96397 32077 ft 455 kts 255°
2026-05-05 04:21 33.38905 -123.03755 32077 ft 456 kts 255°
2026-05-05 04:21 33.37367 -123.11105 32078 ft 454 kts 255°
2026-05-05 04:22 33.35826 -123.18443 32081 ft 455 kts 255°
2026-05-05 04:22 33.34282 -123.25771 32082 ft 454 kts 255°
2026-05-05 04:23 33.32747 -123.33036 32086 ft 454 kts 255°
2026-05-05 04:23 33.31197 -123.40348 32076 ft 453 kts 255°
2026-05-05 04:24 33.29642 -123.47661 32079 ft 453 kts 255°
2026-05-05 04:25 33.27306 -123.58606 32092 ft 453 kts 255°
2026-05-05 04:25 33.25755 -123.65845 32092 ft 452 kts 255°
2026-05-05 04:26 33.24193 -123.73114 32083 ft 452 kts 255°
2026-05-05 04:26 33.22622 -123.80399 32085 ft 451 kts 255°
2026-05-05 04:27 33.21054 -123.87653 32085 ft 451 kts 255°
2026-05-05 04:27 33.19478 -123.94919 32089 ft 450 kts 255°
2026-05-05 04:28 33.17902 -124.02164 32084 ft 450 kts 255°
2026-05-05 04:28 33.16333 -124.09353 32089 ft 450 kts 255°
2026-05-05 04:29 33.14750 -124.16584 32087 ft 450 kts 255°
2026-05-05 04:29 33.13166 -124.23800 32087 ft 449 kts 255°
2026-05-05 04:30 33.11581 -124.31001 32085 ft 449 kts 255°
2026-05-05 04:30 33.09992 -124.38195 32090 ft 447 kts 255°
2026-05-05 04:31 33.08402 -124.45374 32084 ft 447 kts 255°
2026-05-05 04:31 33.06812 -124.52542 32084 ft 446 kts 255°
2026-05-05 04:32 33.05204 -124.59683 32083 ft 446 kts 255°
2026-05-05 04:32 33.03610 -124.66771 32086 ft 445 kts 255°
2026-05-05 04:33 33.02010 -124.73907 32084 ft 445 kts 255°
2026-05-05 04:33 33.00409 -124.81036 32087 ft 444 kts 255°
2026-05-05 04:34 32.98808 -124.88143 32085 ft 445 kts 255°
2026-05-05 04:34 32.97198 -124.95266 32086 ft 444 kts 255°
2026-05-05 04:35 32.95586 -125.02368 32085 ft 444 kts 255°
2026-05-05 04:35 32.93983 -125.09408 32087 ft 442 kts 255°
2026-05-05 04:36 32.92367 -125.16479 32081 ft 443 kts 255°
2026-05-05 04:36 32.90746 -125.23553 32090 ft 442 kts 255°
2026-05-05 04:37 32.89126 -125.30603 32086 ft 441 kts 255°
2026-05-05 04:37 32.87505 -125.37638 32086 ft 440 kts 255°
2026-05-05 04:38 32.85882 -125.44662 32090 ft 440 kts 255°
2026-05-05 04:38 32.84264 -125.51648 32085 ft 440 kts 255°
2026-05-05 04:39 32.82636 -125.58652 32087 ft 440 kts 255°
2026-05-05 04:39 32.81001 -125.65670 32083 ft 439 kts 255°
2026-05-05 04:40 32.79365 -125.72673 32084 ft 440 kts 255°
2026-05-05 04:40 32.77725 -125.79674 32095 ft 439 kts 255°
2026-05-05 04:41 32.76083 -125.86661 32098 ft 440 kts 255°
2026-05-05 04:41 32.74435 -125.93660 32094 ft 439 kts 255°
2026-05-05 04:42 32.72787 -126.00634 32085 ft 439 kts 255°
2026-05-05 04:42 32.71134 -126.07615 32088 ft 438 kts 255°
2026-05-05 04:43 32.69482 -126.14574 32081 ft 438 kts 255°
2026-05-05 04:43 32.67824 -126.21537 32084 ft 437 kts 255°
2026-05-05 04:44 32.66152 -126.28511 32078 ft 447 kts 261°
2026-05-05 04:44 32.64439 -126.35730 32084 ft 462 kts 261°
2026-05-05 04:45 32.62663 -126.43121 32085 ft 466 kts 261°
2026-05-05 04:45 32.60879 -126.50507 32087 ft 465 kts 261°
2026-05-05 04:46 32.59108 -126.57838 32090 ft 464 kts 261°
2026-05-05 04:46 32.57324 -126.65206 32084 ft 464 kts 260°
2026-05-05 04:47 32.55540 -126.72552 32086 ft 464 kts 260°
2026-05-05 04:47 32.53750 -126.79906 32089 ft 463 kts 260°
2026-05-05 04:48 32.51960 -126.87236 32090 ft 463 kts 260°
2026-05-05 04:48 32.50164 -126.94572 32099 ft 464 kts 260°
2026-05-05 04:49 32.48362 -127.01911 32099 ft 464 kts 259°
2026-05-05 04:49 32.46556 -127.09249 32084 ft 464 kts 259°
2026-05-05 04:50 32.44747 -127.16578 32090 ft 464 kts 259°
2026-05-05 04:50 32.42931 -127.23913 32091 ft 464 kts 259°
2026-05-05 04:51 32.41109 -127.31251 32096 ft 464 kts 259°
2026-05-05 04:51 32.39294 -127.38544 32098 ft 464 kts 259°
2026-05-05 04:52 32.37467 -127.45861 32091 ft 463 kts 259°
2026-05-05 04:52 32.35624 -127.53228 32099 ft 464 kts 259°
2026-05-05 04:53 32.33802 -127.60488 32099 ft 463 kts 259°
2026-05-05 04:53 32.31967 -127.67780 32096 ft 463 kts 259°
2026-05-05 04:54 32.30126 -127.75077 32102 ft 463 kts 259°
2026-05-05 04:54 32.28583 -127.81179 32098 ft 462 kts 259°
2026-05-05 04:55 32.26439 -127.89630 32107 ft 462 kts 259°
2026-05-05 04:55 32.24891 -127.95719 32108 ft 462 kts 259°
2026-05-05 04:56 32.23050 -128.02942 32111 ft 462 kts 259°
2026-05-05 04:56 32.21192 -128.10210 32108 ft 461 kts 259°
2026-05-05 04:57 32.19331 -128.17474 32110 ft 462 kts 259°
2026-05-05 04:57 32.17469 -128.24724 32107 ft 462 kts 259°
2026-05-05 04:58 32.15599 -128.31984 32113 ft 462 kts 259°
2026-05-05 04:58 32.13738 -128.39188 32119 ft 462 kts 259°
2026-05-05 04:59 32.11861 -128.46436 32120 ft 462 kts 258°
2026-05-05 04:59 32.09981 -128.53677 32120 ft 462 kts 258°
2026-05-05 05:00 32.08097 -128.60918 32121 ft 462 kts 258°
2026-05-05 05:00 32.06208 -128.68155 32133 ft 462 kts 258°
2026-05-05 05:01 32.04317 -128.75382 32134 ft 461 kts 258°
2026-05-05 05:01 32.02423 -128.82598 32130 ft 461 kts 259°
2026-05-05 05:02 32.00525 -128.89816 32132 ft 461 kts 259°
2026-05-05 05:02 31.98637 -128.96978 32137 ft 460 kts 259°
2026-05-05 05:03 31.96733 -129.04181 32138 ft 460 kts 259°
2026-05-05 05:03 31.94828 -129.11370 32139 ft 460 kts 259°
2026-05-05 05:04 31.92923 -129.18543 32142 ft 459 kts 259°
2026-05-05 05:04 31.91017 -129.25695 32146 ft 458 kts 259°
2026-05-05 05:05 31.89107 -129.32849 32143 ft 457 kts 259°
2026-05-05 05:05 31.87199 -129.39976 32143 ft 457 kts 259°
2026-05-05 05:06 31.85283 -129.47116 32145 ft 456 kts 259°
2026-05-05 05:06 31.83384 -129.54175 32146 ft 456 kts 260°
2026-05-05 05:07 31.81469 -129.61274 32151 ft 455 kts 260°
2026-05-05 05:07 31.79552 -129.68363 32150 ft 454 kts 260°
2026-05-05 05:08 31.77637 -129.75429 32151 ft 454 kts 260°
2026-05-05 05:08 31.75719 -129.82490 32150 ft 453 kts 260°
2026-05-05 05:09 31.73796 -129.89548 32159 ft 453 kts 260°
2026-05-05 05:09 31.71872 -129.96596 32152 ft 453 kts 260°
2026-05-05 05:10 31.69946 -130.03633 32156 ft 453 kts 260°
2026-05-05 05:10 31.68017 -130.10664 32155 ft 452 kts 260°
2026-05-05 05:11 31.66083 -130.17694 32158 ft 452 kts 260°
2026-05-05 05:11 31.64150 -130.24707 32161 ft 452 kts 260°
2026-05-05 05:12 31.62208 -130.31735 32156 ft 452 kts 260°
2026-05-05 05:12 31.60262 -130.38759 32165 ft 452 kts 260°
2026-05-05 05:13 31.58327 -130.45728 32164 ft 452 kts 260°
2026-05-05 05:13 31.56373 -130.52749 32164 ft 453 kts 260°
2026-05-05 05:14 31.54414 -130.59770 32164 ft 453 kts 260°
2026-05-05 05:14 31.52455 -130.66775 32168 ft 453 kts 260°
2026-05-05 05:15 31.50488 -130.73791 32169 ft 453 kts 260°
2026-05-05 05:15 31.48518 -130.80803 32170 ft 453 kts 259°
2026-05-05 05:16 31.46543 -130.87816 32167 ft 453 kts 259°
2026-05-05 05:16 31.44565 -130.94822 32175 ft 453 kts 259°
2026-05-05 05:17 31.42591 -131.01797 32177 ft 454 kts 259°
2026-05-05 05:17 31.40604 -131.08805 32177 ft 454 kts 259°
2026-05-05 05:18 31.38612 -131.15810 32176 ft 454 kts 259°
2026-05-05 05:18 31.36615 -131.22817 32175 ft 454 kts 259°
2026-05-05 05:19 31.34609 -131.29844 32179 ft 454 kts 258°
2026-05-05 05:19 31.32603 -131.36848 32179 ft 455 kts 258°
2026-05-05 05:20 31.30598 -131.43834 32180 ft 455 kts 258°
2026-05-05 05:20 31.28580 -131.50852 32183 ft 455 kts 258°
2026-05-05 05:21 31.26559 -131.57864 32184 ft 456 kts 258°
2026-05-05 05:21 31.26517 -131.58009 32184 ft 456 kts 258°